Location: Newark
(44.2003°N, 3.2583°E)
Time: 00:32:55
(UTC+00:00)

SR - Pass Details

Date: 31 October 2019
Orbit: 574 x 882 km, 66.7° (Epoch: 17 November)

Event Time Altitude Azimuth Distance (km) Brightness Sun altitude
Rises 01:21:41 0° 333° (NNW) 3,429 - -51.6°
Reaches altitude 10° 01:25:59 10° 3° (N) 2,529 - -51.0°
Maximum altitude 01:28:15 12° 26° (NNE) 2,386 - -50.7°
Drops below altitude 10° 01:30:32 10° 49° (NE) 2,546 - -50.4°
Exits shadow 01:31:50 - 60° (ENE) 2,758 ? -50.3°
Sets 01:34:53 0° 79° (E) 3,478 ? -49.8°
